Sparta, IL

12:23 PM CST on December 15, 2019 (GMT -0600)
Sparta Community-Hunter

Weather History for KSAR - August, 2019

Change the Weather History Date:

Sunday, August 4, 2019

  Actual Average (KBLV) Record (KBLV)
Temperature  
Mean Temperature 77 °F -  
Max Temperature 86 °F 87 °F 101 °F (1954)
Min Temperature 68 °F 64 °F 49 °F (1976)
Cooling Degree Days 12    
Growing Degree Days 27 (Base 50)    
Moisture  
Dew Point 65 °F    
Average Humidity 70    
Maximum Humidity 98    
Minimum Humidity 46    
Precipitation  
Precipitation 0.00 in - - ()
Sea Level Pressure  
Sea Level Pressure 30.03 in    
Wind  
Wind Speed 4 mph (NNE)    
Max Wind Speed 9 mph    
Max Gust Speed -    
Visibility 10 miles    
Events Rain , Thunderstorm    
Averages and records for this station are not official NWS values.
T = Trace of Precipitation, MM = Missing Value Source: NWS Daily Summary

Daily Weather History Graph

Daily Weather History Graph

Search for Another Location

Airport or City:

Astronomy

Aug. 04, 2019 Rise Set
Actual Time 6:03 AM CDT 8:05 PM CDT
Civil Twilight 5:34 AM CDT 8:34 PM CDT
Nautical Twilight 4:59 AM CDT 9:09 PM CDT
Astronomical Twilight 4:21 AM CDT 9:47 PM CDT
Moon 10:06 AM CDT (8/4) 10:48 PM CDT (8/4)
Length of Visible Light 14h 59m
Length of Day
14h 01m
Waxing Crescent, 18% of the Moon is Illuminated
Aug 4
Waxing Crescent
Aug 7
First Quarter
Aug 15
Full
Aug 23
Last Quarter
Aug 30
New

Hourly Weather History & Observations

Time (CDT) Temp. Heat Index Dew Point Humidity Pressure Visibility Wind Dir Wind Speed Gust Speed Precip Events Conditions
12:15 AM 72.5 °F - 67.6 °F 85% 30.04 in 10.0 mi NE 4.6 mph - N/A   Clear
12:35 AM 71.8 °F - 67.5 °F 86% 30.04 in 10.0 mi NE 4.6 mph - N/A   Clear
12:55 AM 71.4 °F - 67.6 °F 88% 30.04 in 10.0 mi Calm Calm - N/A   Scattered Clouds
1:15 AM 72.5 °F - 67.6 °F 85% 30.04 in 10.0 mi Calm Calm - N/A   Overcast
1:35 AM 72.7 °F - 67.3 °F 83% 30.04 in 10.0 mi NNE 3.5 mph - N/A   Overcast
1:55 AM 72.0 °F - 67.1 °F 85% 30.04 in 10.0 mi Calm Calm - N/A   Mostly Cloudy
2:15 AM 71.8 °F - 68.5 °F 89% 30.04 in 10.0 mi SW 3.5 mph - N/A Thunderstorm Overcast
2:35 AM 73.9 °F - 66.6 °F 78% 30.04 in 10.0 mi SSE 8.1 mph - N/A   Overcast
2:55 AM 73.8 °F - 66.4 °F 78% 30.03 in 10.0 mi ENE 6.9 mph - N/A Rain Rain
3:15 AM 71.2 °F - 67.5 °F 88% 30.03 in 10.0 mi East 4.6 mph - N/A   Overcast
3:35 AM 70.9 °F - 67.5 °F 89% 30.04 in 10.0 mi SSW 4.6 mph - N/A Thunderstorm Thunderstorm
3:55 AM 70.9 °F - 66.9 °F 87% 30.04 in 10.0 mi Calm Calm - N/A   Scattered Clouds
4:15 AM 68.9 °F - 67.3 °F 95% 30.03 in 10.0 mi ESE 3.5 mph - N/A   Clear
4:35 AM 68.2 °F - 67.3 °F 97% 30.03 in 10.0 mi NNE 4.6 mph - N/A   Clear
4:55 AM 68.5 °F - 67.3 °F 96% 30.03 in 10.0 mi Calm Calm - N/A   Clear
5:15 AM 68.7 °F - 67.3 °F 95% 30.02 in 10.0 mi Calm Calm - N/A   Clear
5:35 AM 68.9 °F - 66.9 °F 93% 30.03 in 10.0 mi Calm Calm - N/A   Scattered Clouds
5:55 AM 68.0 °F - 66.9 °F 96% 30.04 in 10.0 mi Calm Calm - N/A   Clear
6:15 AM 68.4 °F - 66.6 °F 94% 30.04 in 10.0 mi Calm Calm - N/A   Clear
6:35 AM 68.0 °F - 67.3 °F 98% 30.04 in 10.0 mi NNW 3.5 mph - N/A   Clear
6:55 AM 68.9 °F - 67.5 °F 95% 30.05 in 10.0 mi Calm Calm - N/A   Clear
7:15 AM 69.4 °F - 67.6 °F 94% 30.05 in 10.0 mi Calm Calm - N/A   Clear
7:35 AM 70.0 °F - 68.0 °F 93% 30.05 in 10.0 mi North 3.5 mph - N/A   Clear
7:55 AM 71.1 °F - 67.5 °F 88% 30.06 in 10.0 mi North 3.5 mph - N/A   Clear
8:15 AM 72.9 °F - 67.6 °F 84% 30.06 in 10.0 mi NE 4.6 mph - N/A   Clear
8:35 AM 74.5 °F - 68.0 °F 80% 30.06 in 10.0 mi North 3.5 mph - N/A   Clear
8:55 AM 75.2 °F - 67.6 °F 77% 30.07 in 10.0 mi North 5.8 mph - N/A   Clear
9:15 AM 76.3 °F - 68.2 °F 76% 30.07 in 10.0 mi NNE 3.5 mph - N/A   Clear
9:35 AM 77.5 °F - 67.6 °F 71% 30.07 in 10.0 mi NNE 6.9 mph - N/A   Clear
9:55 AM 79.0 °F - 67.1 °F 67% 30.07 in 10.0 mi ENE 4.6 mph - N/A   Clear
10:15 AM 80.4 °F 82.4 °F 66.0 °F 61% 30.07 in 10.0 mi ENE 6.9 mph - N/A   Clear
10:35 AM 80.8 °F 82.8 °F 65.8 °F 60% 30.07 in 10.0 mi NNE 4.6 mph - N/A   Clear
10:55 AM 81.9 °F 83.9 °F 65.7 °F 58% 30.07 in 10.0 mi NE 9.2 mph - N/A   Clear
11:15 AM 82.0 °F 83.9 °F 65.3 °F 57% 30.06 in 10.0 mi NE 8.1 mph - N/A   Clear
11:35 AM 82.4 °F 84.1 °F 64.9 °F 55% 30.06 in 10.0 mi North 5.8 mph - N/A   Clear
11:55 AM 82.8 °F 84.5 °F 65.1 °F 55% 30.06 in 10.0 mi NNE 4.6 mph - N/A   Clear
12:15 PM 84.0 °F 85.8 °F 65.1 °F 53% 30.06 in 10.0 mi NE 3.5 mph - N/A   Clear
12:35 PM 84.0 °F 85.6 °F 64.6 °F 52% 30.06 in 10.0 mi NNE 4.6 mph - N/A   Clear
12:55 PM 84.6 °F 86.3 °F 64.9 °F 52% 30.05 in 10.0 mi NNE 8.1 mph - N/A   Clear
1:15 PM 84.7 °F 86.3 °F 64.9 °F 51% 30.05 in 10.0 mi ENE 6.9 mph - N/A   Clear
1:35 PM 85.1 °F 86.9 °F 65.1 °F 51% 30.04 in 10.0 mi Calm Calm - N/A   Clear
1:55 PM 84.9 °F 86.3 °F 64.4 °F 50% 30.03 in 10.0 mi ENE 6.9 mph - N/A   Clear
2:15 PM 86.2 °F 87.3 °F 63.9 °F 47% 30.03 in 10.0 mi North 6.9 mph - N/A   Clear
2:35 PM 85.1 °F 85.7 °F 61.9 °F 46% 30.02 in 10.0 mi Calm Calm - N/A   Clear
2:55 PM 84.6 °F 85.6 °F 63.5 °F 49% 30.02 in 10.0 mi NNE 5.8 mph - N/A   Clear
3:15 PM 85.8 °F 86.8 °F 63.7 °F 47% 30.01 in 10.0 mi North 6.9 mph - N/A   Clear
3:35 PM 85.5 °F 86.8 °F 64.0 °F 49% 30.01 in 10.0 mi North 5.8 mph - N/A   Clear
3:55 PM 86.0 °F 87.3 °F 64.2 °F 48% 30.01 in 10.0 mi NE 8.1 mph - N/A   Clear
4:15 PM 85.5 °F 86.6 °F 63.5 °F 48% 30.01 in 10.0 mi NE 5.8 mph - N/A   Clear
4:35 PM 85.3 °F 86.6 °F 63.9 °F 49% 30.00 in 10.0 mi NNE 6.9 mph - N/A   Clear
4:55 PM 85.1 °F 86.4 °F 63.7 °F 49% 30.01 in 10.0 mi NNE 5.8 mph - N/A   Clear
5:15 PM 84.9 °F 86.6 °F 64.8 °F 51% 30.01 in 10.0 mi North 6.9 mph - N/A   Clear
5:35 PM 84.7 °F 86.3 °F 64.9 °F 51% 30.00 in 10.0 mi NNE 6.9 mph - N/A   Clear
5:55 PM 84.2 °F 85.4 °F 63.7 °F 50% 30.00 in 10.0 mi NNE 8.1 mph - N/A   Clear
6:15 PM 83.7 °F 84.5 °F 62.6 °F 49% 30.00 in 10.0 mi North 6.9 mph - N/A   Clear
6:35 PM 83.1 °F 83.9 °F 62.1 °F 49% 30.00 in 10.0 mi NNE 5.8 mph - N/A   Clear
6:55 PM 82.0 °F 83.3 °F 63.3 °F 53% 30.00 in 10.0 mi NNE 3.5 mph - N/A   Clear
7:15 PM 81.5 °F 82.9 °F 63.9 °F 55% 30.00 in 10.0 mi Calm Calm - N/A   Clear
7:35 PM 80.4 °F 82.0 °F 63.7 °F 57% 30.00 in 10.0 mi North 3.5 mph - N/A   Clear
7:55 PM 79.3 °F - 63.9 °F 59% 30.00 in 10.0 mi Calm Calm - N/A   Clear
8:15 PM 78.4 °F - 63.5 °F 60% 30.00 in 10.0 mi North 3.5 mph - N/A   Clear
8:35 PM 77.2 °F - 63.9 °F 63% 30.00 in 10.0 mi North 3.5 mph - N/A   Clear
8:55 PM 76.6 °F - 63.5 °F 64% 30.00 in 10.0 mi North 3.5 mph - N/A   Clear
9:15 PM 76.3 °F - 63.5 °F 64% 30.01 in 10.0 mi Calm Calm - N/A   Clear
9:35 PM 75.2 °F - 63.5 °F 67% 30.01 in 10.0 mi Calm Calm - N/A   Clear
9:55 PM 73.8 °F - 63.9 °F 71% 30.02 in 10.0 mi Calm Calm - N/A   Clear
10:15 PM 73.0 °F - 63.5 °F 72% 30.02 in 10.0 mi Calm Calm - N/A   Clear
10:35 PM 70.2 °F - 64.2 °F 81% 30.03 in 10.0 mi Calm Calm - N/A   Clear
10:55 PM 69.4 °F - 63.9 °F 82% 30.03 in 10.0 mi Calm Calm - N/A   Clear
11:15 PM 70.7 °F - 63.9 °F 79% 30.03 in 10.0 mi Calm Calm - N/A   Clear
11:35 PM 71.2 °F - 63.5 °F 76% 30.03 in 10.0 mi Calm Calm - N/A   Clear
11:55 PM 69.8 °F - 63.9 °F 81% 30.03 in 10.0 mi Calm Calm - N/A   Clear